Location: Riverton
(43.0250°N, 108.3790°W)
Time: 20:01:32
(UTC-06:00)

Daily predictions for brighter satellites

Satellite Brightness Start Highest point End
(mag) Time Altitude Azimuth Time Altitude Azimuth Time Altitude Azimuth
Aureole 3 4.3 21:22:27 10° S 21:28:36 60° E 21:33:26 10° NNE
Cosmos 2219 3.2 21:25:14 10° SSW 21:30:58 76° ESE 21:36:43 10° NNE
CZ-4 SHROUD 4.2 21:29:15 10° SE 21:32:04 31° ENE 21:34:54 10° N
OAO 2 Rocket 4.3 21:27:32 10° SW 21:32:08 30° S 21:36:45 10° ESE
Cosmos 2237 Rocket 3.5 21:27:50 10° N 21:32:43 28° NE 21:37:34 10° ESE
Cosmos 2150 Rocket 4.5 21:30:22 10° S 21:35:31 45° ESE 21:40:42 10° NNE
deb Chang Zheng 4 3.5 21:31:36 10° NNE 21:35:58 74° ESE 21:40:18 10° S
Sich 1 3.9 21:33:04 10° SSE 21:37:00 32° E 21:40:55 10° NNE
Cosmos 1271 Rocket 4.0 21:34:05 10° NNE 21:37:20 25° ENE 21:40:37 10° SE
Cosmos 1151 Rocket 3.6 21:33:23 10° NNW 21:37:40 60° W 21:41:56 10° S
Cosmos 2333 4.4 21:32:34 10° NNW 21:38:18 67° ENE 21:44:01 10° SE
Cosmos 1328 3.7 21:35:36 10° S 21:39:33 82° E 21:43:32 10° N
Cosmos 2360 Rocket 3.2 21:36:20 10° NW 21:41:43 46° WSW 21:47:04 10° S
ERBS 3.2 21:38:43 10° S 21:41:47 29° SE 21:44:51 10° ENE
YAOGAN 6 3.6 21:39:39 10° SE 21:42:53 32° ENE 21:46:06 10° N
Cosmos 1633 Rocket 3.7 21:40:51 10° SSE 21:44:53 37° E 21:48:54 10° NNE
ATLAS 2AS CENTAUR R/B 3.7 21:40:49 10° SSE 21:47:07 31° ESE 21:53:49 10° NE
ERS-1 Rocket 3.6 21:42:26 10° S 21:47:22 56° W 21:52:20 10° NNW
Cosmos 2242 Rocket 4.2 21:46:21 10° N 21:50:36 40° ENE 21:54:37 11° SE
Cosmos 1674 4.2 21:47:10 10° SSW 21:50:47 39° WNW 21:54:27 10° N
Cosmos 1703 4.2 21:50:08 10° SSE 21:53:32 29° E 21:56:56 10° NNE
ATLAS 3B R/B 3.9 21:47:36 10° NNW 21:53:59 34° NE 22:00:00 10° ESE
Envisat 3.1 21:49:52 10° S 21:54:56 79° WSW 22:00:03 10° NNW
SL-14 R/B 3.4 21:51:10 10° S 21:55:02 57° E 21:59:00 10° NNE
PSLV R/B 3.1 21:55:40 10° SSE 21:58:40 81° ENE 22:01:43 10° N
USA 245 3.3 21:58:26 16° ESE 21:59:42 25° ENE 22:01:39 10° NNE
Cosmos 1805 Rocket 3.7 21:58:09 10° S 22:02:36 83° W 22:07:04 10° N
Meteor 1-27 4.3 21:59:28 10° N 22:05:11 88° W 22:10:46 10° S
Cosmos 220 Rocket 4.2 22:01:36 10° S 22:05:52 54° ESE 22:10:14 10° NNE
Cosmos 1300 2.9 22:02:58 10° NNW 22:06:50 73° W 22:10:38 10° S
USA 32 4.3 22:03:25 10° N 22:08:35 54° E 22:13:03 14° SSE
NOSS 3-1 (C) 3.7 22:03:38 10° SW 22:09:31 73° NW 22:16:08 10° NNE
Cosmos 2227 Rocket 2.5 22:07:00 10° S 22:12:19 44° ESE 22:17:41 10° NE
Cosmos 1937 Rocket 3.5 22:07:50 10° S 22:13:01 67° ESE 22:18:11 10° NNE
MetOp-A 4.2 22:11:47 10° S 22:17:08 79° WSW 22:22:31 10° NNW
Cosmos 990 Rocket 4.1 22:13:50 10° S 22:18:48 53° ESE 22:23:49 10° NNE
H-2A R/B 3.7 22:15:20 10° SSW 22:19:26 33° W 22:23:32 10° NNW
Cosmos 292 Rocket 3.8 22:15:55 10° NNW 22:20:42 79° WSW 22:24:32 16° SSE
Cosmos 1707 Rocket 4.2 22:16:34 10° NNW 22:20:51 55° W 22:25:08 10° S
SPOT 5 3.5 22:19:39 10° S 22:24:11 52° W 22:28:59 10° NNW
Cosmos 1666 Rocket 4.0 22:21:21 10° SSW 22:25:43 64° W 22:30:08 10° N
OTV 4 1.5 22:23:40 10° SW 22:26:12 25° S 22:26:19 25° SSE
CZ-4B R/B 3.5 22:23:11 10° NNE 22:28:28 82° ESE 22:33:38 10° SSW
SL-16 R/B 3.2 22:23:28 10° N 22:28:37 34° NE 22:32:32 16° ESE
Cosmos 1455 2.7 22:25:15 10° N 22:28:56 43° ENE 22:30:51 24° SE
Cosmos 1726 3.0 22:26:51 10° NNW 22:30:30 46° W 22:33:54 11° SSW
ARGOS 3.1 22:26:16 16° SSE 22:30:35 81° ENE 22:36:00 10° NNW
Cosmos 1346 3.3 22:29:55 28° SSE 22:31:11 47° E 22:34:07 10° NNE
Cosmos 2333 Rocket 2.2 22:27:51 10° NNW 22:33:39 88° ENE 22:37:44 20° SSE
Meteor 1-4 Rocket 3.3 22:35:03 10° NNW 22:38:41 50° W 22:41:21 16° SSW
Cosmos 2297 Rocket 2.4 22:33:35 11° S 22:38:44 51° ESE 22:44:11 10° NE
Cosmos 1470 Rocket 3.4 22:36:19 17° S 22:39:31 72° E 22:43:51 10° NNE
Landsat 7 4.0 22:36:52 22° SE 22:39:48 61° ENE 22:44:30 10° N
Cosmos 1933 Rocket 3.5 22:37:07 18° S 22:40:26 71° E 22:44:53 10° NNE
Cosmos 2219 Rocket 2.5 22:35:14 10° NNW 22:40:45 62° WSW 22:44:51 18° S
Cosmos 1241 Rocket 4.4 22:35:22 10° SSW 22:41:32 82° ESE 22:47:50 10° NE
Lacrosse 4 Rocket 2.4 22:38:39 10° NNW 22:42:50 39° NE 22:45:16 22° ESE
Meteor 2-10 4.3 22:38:23 10° NNW 22:44:08 78° W 22:48:33 18° S
Cosmos 44 Rocket 4.5 22:43:24 23° SE 22:44:29 25° ESE 22:48:40 10° ENE
COSMOS 2428 4.3 22:40:24 10° NW 22:45:12 29° WSW 22:50:00 10° SSW
SL-08 RB Rocket 3.7 22:43:10 22° S 22:46:04 84° WSW 22:50:36 10° NNW
Cosmos 1933 4.5 22:44:34 10° NNE 22:48:12 30° ENE 22:49:35 24° ESE
NOSS 0 Rocket 4.2 22:43:14 10° NNW 22:49:20 63° WSW 22:53:36 20° S
Cosmos 1269 Rocket 4.4 22:44:54 10° N 22:50:06 52° ENE 22:52:58 25° SE
Nadezhda 1 Rocket 3.9 22:46:24 10° N 22:52:33 88° W 22:56:55 20° S
Terra 2.0 22:53:14 28° SE 22:55:40 61° ENE 23:00:22 10° N
Tiangong 1 0.9 22:53:15 10° W 22:56:21 88° S 22:57:27 36° E
H-2A R/B 2.2 22:56:03 26° SSE 22:59:11 76° ENE 23:04:39 10° N
COSMOS 2455 2.9 22:55:32 10° NNW 23:01:35 72° ENE 23:04:58 27° SE
Cosmos 1980 4.1 22:59:50 10° NNW 23:05:21 55° WSW 23:08:41 23° S
Cosmos 1048 Rocket 4.3 23:00:49 10° NNW 23:06:08 58° ENE 23:08:41 30° SE
Cosmos 1125 Rocket 3.6 23:03:57 25° S 23:07:02 62° ESE 23:12:16 10° NNE
Cosmos 2221 Rocket 4.2 23:03:07 10° N 23:07:31 45° ENE 23:09:02 33° SE
Cosmos 1745 Rocket 4.4 23:01:51 10° SSW 23:07:59 62° W 23:14:06 10° N
NOSS 2-3 (D) 4.4 23:08:31 32° SSE 23:10:05 41° ESE 23:15:15 10° NE
Spot 4 3.9 23:08:33 33° SE 23:10:41 67° ENE 23:15:32 10° N
Cosmos 389 Rocket 3.8 23:08:48 10° NNE 23:11:52 26° ENE 23:12:16 26° E
Cosmos 1869 3.5 23:09:11 10° NNW 23:13:13 66° W 23:14:51 33° SSW
Cosmos 1626 2.7 23:11:29 23° SSW 23:13:36 54° W 23:17:18 10° N
Cosmos 1900 4.3 23:10:43 10° NW 23:15:43 81° WSW 23:17:41 37° SSE
Cosmos 1709 Rocket 3.9 23:12:20 27° S 23:15:50 70° E 23:21:55 10° NNE
OAO 2 Rocket 4.1 23:11:36 10° WSW 23:16:23 34° S 23:16:58 33° S
Cosmos 2237 Rocket 2.8 23:11:32 10° NW 23:17:01 48° WSW 23:20:07 24° S
Cosmos 372 Rocket 4.4 23:16:09 34° SSE 23:17:46 44° ESE 23:22:43 10° NNE
ERBS 4.3 23:15:24 10° W 23:18:35 32° NW 23:21:44 10° NNE
Cosmos 1862 Rocket 4.3 23:15:57 10° NNW 23:20:07 47° W 23:22:14 25° SSW
CARTOSAT-1 3.7 23:19:15 36° S 23:20:56 70° WSW 23:25:15 10° NNW
Cosmos 2082 4.5 23:18:54 10° SW 23:24:29 53° WNW 23:30:05 10° NNE
Meteor 1-26 Rocket 4.5 23:20:59 10° N 23:26:33 56° ENE 23:28:49 34° SE
IGS 5A 3.6 23:27:25 40° SSW 23:28:46 65° W 23:32:56 10° NNW
CZ-4C R/B 4.4 23:27:55 25° SW 23:28:59 30° W 23:32:06 10° NW
SAR-Lupe-2 3.9 23:32:48 49° SW 23:33:25 58° WSW 23:36:58 10° NNW
Cosmos 44 4.4 23:33:29 30° ESE 23:33:31 30° ESE 23:38:11 10° NE
BREEZE-M DEB (TANK) 4.1 23:36:44 15° ENE 23:36:44 15° ENE 23:37:29 10° ENE
ATLAS 2AS CENTAUR R/B 3.4 23:30:02 10° SW 23:37:34 67° NW 23:45:40 10° NNE
ATLAS 3B R/B 2.8 23:38:16 10° NW 23:45:09 62° WSW 23:47:56 35° S
COS B Rocket 3.3 23:41:57 10° N 23:45:58 80° E 23:46:40 61° SSE
Cosmos 1733 Rocket 4.4 23:46:56 26° E 23:47:04 26° E 23:50:45 10° NNE
Cosmos 1869 Rocket 3.6 23:48:02 48° SSW 23:49:16 82° W 23:53:46 10° N
Cosmos 2181 Rocket 4.2 23:43:00 10° NNW 23:49:22 73° W 23:52:25 33° S
Aureole 2 Rocket 2.7 23:46:39 10° NNW 23:49:43 56° NE 23:49:43 56° NE
Meteor 2-3 Rocket 3.9 23:51:08 42° SSE 23:52:53 60° E 23:58:29 10° NNE
Cosmos 2263 Rocket 4.1 23:54:57 14° E 23:54:57 14° E 23:57:44 10° ENE
BREEZE-M DEB (TANK) 3.8 23:45:08 10° WNW 23:56:32 58° N 23:59:04 20° E
